Time,TemperatureF,DewpointF,PressureIn,WindDirection,WindDirectionDegrees,WindSpeedMPH,WindSpeedGustMPH,Humidity,HourlyPrecipIn,Conditions,Clouds,dailyrainin,SolarRadiationWatts/m^2,SoftwareType,DateUTC
2013-05-23 00:01:00,70.2,69.0,29.93,South,174,0.0,0.0,96,0.00,,,0.00,0,Wunderground v.1.15,2013-05-23 05:01:00,
2013-05-23 00:06:00,70.2,69.0,29.93,South,174,0.0,0.0,96,0.00,,,0.00,0,Wunderground v.1.15,2013-05-23 05:06:00,
2013-05-23 00:11:00,70.1,68.9,29.93,South,174,0.0,0.0,96,0.00,,,0.00,0,Wunderground v.1.15,2013-05-23 05:11:00,
2013-05-23 00:16:00,70.1,68.9,29.93,South,174,0.0,0.0,96,0.00,,,0.00,0,Wunderground v.1.15,2013-05-23 05:16:00,
2013-05-23 00:22:00,70.1,68.9,29.93,South,174,0.0,0.0,96,0.00,,,0.00,0,Wunderground v.1.15,2013-05-23 05:22:00,
2013-05-23 00:28:00,70.0,68.8,29.93,South,174,0.0,0.0,96,0.00,,,0.00,0,Wunderground v.1.15,2013-05-23 05:28:00,
2013-05-23 00:34:00,69.9,68.7,29.93,South,174,0.0,0.0,96,0.00,,,0.00,0,Wunderground v.1.15,2013-05-23 05:34:00,
2013-05-23 00:39:00,69.8,68.6,29.93,South,174,0.0,0.0,96,0.00,,,0.00,0,Wunderground v.1.15,2013-05-23 05:39:00,
2013-05-23 00:44:00,69.8,68.9,29.93,South,174,0.0,0.0,97,0.00,,,0.00,0,Wunderground v.1.15,2013-05-23 05:44:00,
2013-05-23 00:50:00,69.7,68.8,29.93,South,174,0.0,0.0,97,0.00,,,0.00,0,Wunderground v.1.15,2013-05-23 05:50:00,
2013-05-23 00:56:00,69.6,68.7,29.93,South,174,0.0,0.0,97,0.00,,,0.00,0,Wunderground v.1.15,2013-05-23 05:56:00,
2013-05-23 01:02:00,69.5,68.6,29.93,South,174,0.0,0.0,97,0.00,,,0.00,0,Wunderground v.1.15,2013-05-23 06:02:00,
2013-05-23 01:07:00,69.4,68.5,29.93,South,174,0.0,0.0,97,0.00,,,0.00,0,Wunderground v.1.15,2013-05-23 06:07:00,
2013-05-23 01:12:00,69.4,68.5,29.93,South,174,0.0,0.0,97,0.00,,,0.00,0,Wunderground v.1.15,2013-05-23 06:12:00,
2013-05-23 01:18:00,69.3,68.4,29.93,South,174,0.0,0.0,97,0.00,,,0.00,0,Wunderground v.1.15,2013-05-23 06:18:00,
2013-05-23 01:23:00,69.3,68.4,29.92,South,174,0.0,0.0,97,0.00,,,0.00,0,Wunderground v.1.15,2013-05-23 06:23:00,
2013-05-23 01:28:00,69.2,68.3,29.92,South,174,0.0,0.0,97,0.00,,,0.00,0,Wunderground v.1.15,2013-05-23 06:28:00,
2013-05-23 01:33:00,69.2,68.3,29.92,South,174,0.0,0.0,97,0.00,,,0.00,0,Wunderground v.1.15,2013-05-23 06:33:00,
2013-05-23 01:39:00,69.1,68.2,29.92,South,174,0.0,2.0,97,0.00,,,0.00,0,Wunderground v.1.15,2013-05-23 06:39:00,
2013-05-23 01:44:00,69.1,68.2,29.92,South,174,0.0,0.0,97,0.00,,,0.00,0,Wunderground v.1.15,2013-05-23 06:44:00,
2013-05-23 01:49:00,69.0,68.1,29.92,South,175,0.0,1.0,97,0.00,,,0.00,0,Wunderground v.1.15,2013-05-23 06:49:00,
2013-05-23 01:54:00,69.0,68.1,29.92,South,175,0.0,0.0,97,0.00,,,0.00,0,Wunderground v.1.15,2013-05-23 06:54:00,
2013-05-23 01:59:00,69.0,68.1,29.92,South,175,0.0,0.0,97,0.00,,,0.00,0,Wunderground v.1.15,2013-05-23 06:59:00,
2013-05-23 02:05:00,69.0,68.1,29.92,South,175,0.0,0.0,97,0.00,,,0.00,0,Wunderground v.1.15,2013-05-23 07:05:00,
2013-05-23 02:10:00,68.9,68.0,29.93,South,175,0.0,0.0,97,0.00,,,0.00,0,Wunderground v.1.15,2013-05-23 07:10:00,
2013-05-23 02:15:00,68.9,68.0,29.93,South,175,0.0,0.0,97,0.00,,,0.00,0,Wunderground v.1.15,2013-05-23 07:15:00,
2013-05-23 02:20:00,68.9,68.0,29.93,South,175,0.0,0.0,97,0.00,,,0.00,0,Wunderground v.1.15,2013-05-23 07:20:00,
2013-05-23 02:58:00,68.3,67.4,29.93,South,175,0.0,0.0,97,0.00,,,0.00,0,Wunderground v.1.15,2013-05-23 07:58:00,
2013-05-23 03:03:00,68.1,67.2,29.93,South,175,0.0,0.0,97,0.00,,,0.00,0,Wunderground v.1.15,2013-05-23 08:03:00,
2013-05-23 03:09:00,67.9,67.0,29.93,South,175,0.0,0.0,97,0.00,,,0.00,0,Wunderground v.1.15,2013-05-23 08:09:00,
2013-05-23 03:15:00,67.8,66.9,29.93,South,175,0.0,0.0,97,0.00,,,0.00,0,Wunderground v.1.15,2013-05-23 08:15:00,
2013-05-23 03:20:00,67.7,66.8,29.93,South,175,0.0,0.0,97,0.00,,,0.00,0,Wunderground v.1.15,2013-05-23 08:20:00,
2013-05-23 03:25:00,67.6,66.7,29.93,South,175,0.0,0.0,97,0.00,,,0.00,0,Wunderground v.1.15,2013-05-23 08:25:00,
2013-05-23 03:31:00,67.5,66.6,29.93,South,175,0.0,0.0,97,0.00,,,0.00,0,Wunderground v.1.15,2013-05-23 08:31:00,
2013-05-23 03:36:00,67.4,66.5,29.93,South,175,0.0,0.0,97,0.00,,,0.00,0,Wunderground v.1.15,2013-05-23 08:36:00,
2013-05-23 03:42:00,67.4,66.5,29.93,South,175,0.0,0.0,97,0.00,,,0.00,0,Wunderground v.1.15,2013-05-23 08:42:00,
2013-05-23 03:47:00,67.3,66.4,29.93,South,175,0.0,0.0,97,0.00,,,0.00,0,Wunderground v.1.15,2013-05-23 08:47:00,
2013-05-23 03:52:00,67.2,66.3,29.93,South,175,0.0,0.0,97,0.00,,,0.00,0,Wunderground v.1.15,2013-05-23 08:52:00,
2013-05-23 03:58:00,67.2,66.3,29.93,South,175,0.0,0.0,97,0.00,,,0.00,0,Wunderground v.1.15,2013-05-23 08:58:00,
2013-05-23 04:04:00,67.3,66.7,29.93,South,175,0.0,0.0,98,0.00,,,0.00,0,Wunderground v.1.15,2013-05-23 09:04:00,
2013-05-23 04:09:00,67.3,66.4,29.93,South,175,0.0,0.0,97,0.00,,,0.00,0,Wunderground v.1.15,2013-05-23 09:09:00,
2013-05-23 04:42:00,67.0,66.1,29.94,South,175,0.0,0.0,97,0.00,,,0.00,0,Wunderground v.1.15,2013-05-23 09:42:00,
2013-05-23 05:17:00,66.6,66.0,29.95,South,175,0.0,0.0,98,0.00,,,0.00,0,Wunderground v.1.15,2013-05-23 10:17:00,
2013-05-23 05:25:00,66.4,65.5,29.95,South,175,0.0,0.0,97,0.00,,,0.00,0,Wunderground v.1.15,2013-05-23 10:25:00,
2013-05-23 05:31:00,66.3,65.4,29.95,South,175,0.0,0.0,97,0.00,,,0.00,0,Wunderground v.1.15,2013-05-23 10:31:00,
2013-05-23 05:36:00,66.2,65.3,29.95,South,175,0.0,0.0,97,0.00,,,0.00,0,Wunderground v.1.15,2013-05-23 10:36:00,
2013-05-23 05:41:00,66.1,65.5,29.95,South,175,0.0,0.0,98,0.00,,,0.00,0,Wunderground v.1.15,2013-05-23 10:41:00,
2013-05-23 05:46:00,66.1,65.5,29.96,South,175,0.0,0.0,98,0.00,,,0.00,0,Wunderground v.1.15,2013-05-23 10:46:00,
2013-05-23 05:52:00,66.0,65.4,29.96,South,175,0.0,0.0,98,0.00,,,0.00,0,Wunderground v.1.15,2013-05-23 10:52:00,
2013-05-23 06:14:00,65.7,64.8,29.97,South,175,0.0,0.0,97,0.00,,,0.00,11,Wunderground v.1.15,2013-05-23 11:14:00,
2013-05-23 06:29:00,65.5,64.6,29.97,South,175,0.0,0.0,97,0.00,,,0.00,23,Wunderground v.1.15,2013-05-23 11:29:00,
2013-05-23 06:42:00,65.7,65.1,29.98,South,175,0.0,0.0,98,0.00,,,0.00,51,Wunderground v.1.15,2013-05-23 11:42:00,
2013-05-23 06:48:00,65.9,65.3,29.98,South,175,0.0,0.0,98,0.00,,,0.00,53,Wunderground v.1.15,2013-05-23 11:48:00,
2013-05-23 06:54:00,66.1,65.5,29.98,South,175,0.0,0.0,98,0.00,,,0.00,47,Wunderground v.1.15,2013-05-23 11:54:00,
2013-05-23 07:04:00,66.5,65.9,29.98,South,175,0.0,0.0,98,0.00,,,0.00,58,Wunderground v.1.15,2013-05-23 12:04:00,
2013-05-23 07:10:00,66.6,66.0,29.99,South,175,0.0,0.0,98,0.00,,,0.00,62,Wunderground v.1.15,2013-05-23 12:10:00,
2013-05-23 07:42:00,69.0,68.4,30.00,South,175,0.0,0.0,98,0.00,,,0.00,241,Wunderground v.1.15,2013-05-23 12:42:00,
2013-05-23 07:48:00,69.4,69.1,30.00,South,175,0.0,0.0,99,0.00,,,0.00,265,Wunderground v.1.15,2013-05-23 12:48:00,
2013-05-23 07:54:00,69.9,69.6,30.00,South,176,0.0,0.0,99,0.00,,,0.00,288,Wunderground v.1.15,2013-05-23 12:54:00,
2013-05-23 07:59:00,70.2,69.9,30.00,South,175,0.0,0.0,99,0.00,,,0.00,301,Wunderground v.1.15,2013-05-23 12:59:00,
2013-05-23 08:04:00,70.5,70.2,30.00,South,175,0.0,0.0,99,0.00,,,0.00,325,Wunderground v.1.15,2013-05-23 13:04:00,
2013-05-23 08:10:00,71.0,70.4,30.00,South,176,0.0,0.0,98,0.00,,,0.00,348,Wunderground v.1.15,2013-05-23 13:10:00,
2013-05-23 08:15:00,71.5,70.9,30.00,South,176,0.0,0.0,98,0.00,,,0.00,364,Wunderground v.1.15,2013-05-23 13:15:00,
2013-05-23 08:20:00,72.0,71.4,30.00,South,176,0.0,0.0,98,0.00,,,0.00,378,Wunderground v.1.15,2013-05-23 13:20:00,
2013-05-23 08:25:00,72.6,71.7,30.00,South,176,0.0,0.0,97,0.00,,,0.00,394,Wunderground v.1.15,2013-05-23 13:25:00,
2013-05-23 08:30:00,73.0,71.8,30.00,South,176,0.0,0.0,96,0.00,,,0.00,415,Wunderground v.1.15,2013-05-23 13:30:00,
2013-05-23 08:36:00,73.2,71.4,30.00,South,177,0.0,0.0,94,0.00,,,0.00,443,Wunderground v.1.15,2013-05-23 13:36:00,
2013-05-23 08:41:00,73.5,71.7,30.00,WSW,245,0.0,0.0,94,0.00,,,0.00,466,Wunderground v.1.15,2013-05-23 13:41:00,
2013-05-23 08:46:00,73.8,72.0,30.00,WSW,246,0.0,0.0,94,0.00,,,0.00,487,Wunderground v.1.15,2013-05-23 13:46:00,
2013-05-23 08:51:00,74.2,71.7,30.00,SW,221,0.0,3.0,92,0.00,,,0.00,499,Wunderground v.1.15,2013-05-23 13:51:00,
2013-05-23 08:56:00,74.7,72.2,30.00,SW,219,0.0,3.0,92,0.00,,,0.00,390,Wunderground v.1.15,2013-05-23 13:56:00,
2013-05-23 09:02:00,75.1,72.3,30.01,SW,219,0.0,0.0,91,0.00,,,0.00,510,Wunderground v.1.15,2013-05-23 14:02:00,
2013-05-23 09:07:00,75.3,72.5,30.00,SW,220,0.0,0.0,91,0.00,,,0.00,613,Wunderground v.1.15,2013-05-23 14:07:00,
2013-05-23 09:13:00,75.7,72.9,30.00,SW,219,0.0,0.0,91,0.00,,,0.00,213,Wunderground v.1.15,2013-05-23 14:13:00,
2013-05-23 09:18:00,75.8,72.7,30.00,SW,220,0.0,0.0,90,0.00,,,0.00,357,Wunderground v.1.15,2013-05-23 14:18:00,
2013-05-23 09:23:00,75.7,72.6,30.01,SW,221,0.0,0.0,90,0.00,,,0.00,369,Wunderground v.1.15,2013-05-23 14:23:00,
2013-05-23 10:22:00,78.2,71.9,30.00,SSW,196,1.0,1.0,81,0.00,,,0.00,237,Wunderground v.1.15,2013-05-23 15:22:00,
2013-05-23 10:27:00,77.9,72.0,30.01,SSW,196,1.0,1.0,82,0.00,,,0.00,278,Wunderground v.1.15,2013-05-23 15:27:00,
2013-05-23 10:32:00,77.9,72.0,30.01,SSW,196,0.0,0.0,82,0.00,,,0.00,304,Wunderground v.1.15,2013-05-23 15:32:00,
2013-05-23 10:38:00,78.2,71.9,30.01,SSW,195,0.0,3.0,81,0.00,,,0.00,371,Wunderground v.1.15,2013-05-23 15:38:00,
2013-05-23 10:43:00,78.7,71.3,30.01,SE,139,1.0,4.0,78,0.00,,,0.00,325,Wunderground v.1.15,2013-05-23 15:43:00,
2013-05-23 10:48:00,78.8,71.7,30.01,SSE,147,1.0,4.0,79,0.00,,,0.00,1023,Wunderground v.1.15,2013-05-23 15:48:00,
2013-05-23 10:53:00,79.3,72.2,30.01,ESE,118,0.0,0.0,79,0.00,,,0.00,976,Wunderground v.1.15,2013-05-23 15:53:00,
2013-05-23 10:58:00,79.8,71.6,30.01,SE,140,0.0,0.0,76,0.00,,,0.00,1021,Wunderground v.1.15,2013-05-23 15:58:00,
2013-05-23 11:04:00,79.8,71.6,30.01,SE,139,0.0,0.0,76,0.00,,,0.00,316,Wunderground v.1.15,2013-05-23 16:04:00,
2013-05-23 11:09:00,79.7,71.8,30.01,SW,221,0.0,4.0,77,0.00,,,0.00,360,Wunderground v.1.15,2013-05-23 16:09:00,
2013-05-23 11:14:00,79.9,73.2,30.01,SSW,195,0.0,0.0,80,0.00,,,0.00,988,Wunderground v.1.15,2013-05-23 16:14:00,
2013-05-23 11:19:00,80.1,72.2,30.02,SW,231,0.0,5.0,77,0.00,,,0.00,420,Wunderground v.1.15,2013-05-23 16:19:00,
2013-05-23 11:25:00,80.3,73.2,30.01,SW,227,1.0,5.0,79,0.00,,,0.00,993,Wunderground v.1.15,2013-05-23 16:25:00,
2013-05-23 11:30:00,80.4,72.1,30.02,SW,227,1.0,1.0,76,0.00,,,0.00,350,Wunderground v.1.15,2013-05-23 16:30:00,
2013-05-23 11:35:00,80.6,72.3,30.02,SE,126,0.0,4.0,76,0.00,,,0.00,1032,Wunderground v.1.15,2013-05-23 16:35:00,
2013-05-23 11:40:00,80.9,73.0,30.02,SW,231,0.0,6.0,77,0.00,,,0.00,1090,Wunderground v.1.15,2013-05-23 16:40:00,
2013-05-23 11:46:00,81.0,71.9,30.02,SW,224,1.0,6.0,74,0.00,,,0.00,656,Wunderground v.1.15,2013-05-23 16:46:00,
2013-05-23 11:51:00,81.3,72.6,30.02,SW,229,1.0,1.0,75,0.00,,,0.00,1113,Wunderground v.1.15,2013-05-23 16:51:00,
2013-05-23 11:57:00,81.6,72.1,30.02,West,264,1.0,4.0,73,0.00,,,0.00,1178,Wunderground v.1.15,2013-05-23 16:57:00,
2013-05-23 12:02:00,81.3,73.0,30.02,SSW,208,1.0,3.0,76,0.00,,,0.00,1144,Wunderground v.1.15,2013-05-23 17:02:00,
2013-05-23 12:07:00,81.9,72.0,30.02,SW,229,1.0,3.0,72,0.00,,,0.00,1114,Wunderground v.1.15,2013-05-23 17:07:00,
2013-05-23 12:13:00,82.4,72.9,30.02,SE,144,0.0,4.0,73,0.00,,,0.00,1109,Wunderground v.1.15,2013-05-23 17:13:00,
2013-05-23 12:18:00,82.4,72.0,30.02,SSW,195,0.0,4.0,71,0.00,,,0.00,1153,Wunderground v.1.15,2013-05-23 17:18:00,
2013-05-23 12:24:00,82.6,72.2,30.02,SSW,202,0.0,0.0,71,0.00,,,0.00,1151,Wunderground v.1.15,2013-05-23 17:24:00,
2013-05-23 12:29:00,82.6,73.1,30.02,South,190,0.0,0.0,73,0.00,,,0.00,1160,Wunderground v.1.15,2013-05-23 17:29:00,
2013-05-23 12:35:00,82.9,71.7,30.02,South,191,0.0,0.0,69,0.00,,,0.00,1132,Wunderground v.1.15,2013-05-23 17:35:00,
2013-05-23 12:40:00,82.7,72.7,30.02,WNW,282,0.0,0.0,72,0.00,,,0.00,199,Wunderground v.1.15,2013-05-23 17:40:00,
2013-05-23 12:46:00,82.3,72.0,30.02,West,273,0.0,0.0,71,0.00,,,0.00,285,Wunderground v.1.15,2013-05-23 17:46:00,
2013-05-23 12:52:00,82.4,71.6,30.01,WSW,240,0.0,0.0,70,0.00,,,0.00,933,Wunderground v.1.15,2013-05-23 17:52:00,
2013-05-23 12:57:00,82.9,72.1,30.01,WSW,245,0.0,0.0,70,0.00,,,0.00,911,Wunderground v.1.15,2013-05-23 17:57:00,
2013-05-23 13:02:00,83.5,71.8,30.01,SSW,199,0.0,0.0,68,0.00,,,0.00,1032,Wunderground v.1.15,2013-05-23 18:02:00,
2013-05-23 13:07:00,83.4,71.7,30.01,SSW,192,0.0,0.0,68,0.00,,,0.00,1030,Wunderground v.1.15,2013-05-23 18:07:00,
2013-05-23 13:13:00,83.4,71.7,30.01,South,180,0.0,1.0,68,0.00,,,0.00,1027,Wunderground v.1.15,2013-05-23 18:13:00,
2013-05-23 13:18:00,83.1,71.0,30.01,South,179,1.0,1.0,67,0.00,,,0.00,1034,Wunderground v.1.15,2013-05-23 18:18:00,
2013-05-23 13:30:00,83.7,70.7,30.01,WSW,257,0.0,0.0,65,0.00,,,0.00,1053,Wunderground v.1.15,2013-05-23 18:30:00,
2013-05-23 13:35:00,84.0,71.0,30.01,SSW,208,0.0,0.0,65,0.00,,,0.00,1048,Wunderground v.1.15,2013-05-23 18:35:00,
2013-05-23 13:41:00,84.7,71.2,30.01,SSW,207,0.0,0.0,64,0.00,,,0.00,1065,Wunderground v.1.15,2013-05-23 18:41:00,
2013-05-23 13:53:00,85.1,72.5,30.00,WSW,238,0.0,0.0,66,0.00,,,0.00,995,Wunderground v.1.15,2013-05-23 18:53:00,
2013-05-23 13:59:00,85.3,71.3,30.00,South,185,0.0,1.0,63,0.00,,,0.00,1079,Wunderground v.1.15,2013-05-23 18:59:00,
2013-05-23 14:04:00,84.8,72.2,30.00,South,178,0.0,0.0,66,0.00,,,0.00,1051,Wunderground v.1.15,2013-05-23 19:04:00,
2013-05-23 14:10:00,84.9,71.8,30.00,South,190,0.0,0.0,65,0.00,,,0.00,302,Wunderground v.1.15,2013-05-23 19:10:00,
2013-05-23 14:16:00,84.7,71.6,30.00,WSW,255,0.0,1.0,65,0.00,,,0.00,1025,Wunderground v.1.15,2013-05-23 19:16:00,
2013-05-23 14:21:00,84.4,70.9,30.00,WNW,291,0.0,0.0,64,0.00,,,0.00,967,Wunderground v.1.15,2013-05-23 19:21:00,
2013-05-23 14:27:00,84.5,71.0,30.00,SW,236,1.0,2.0,64,0.00,,,0.00,981,Wunderground v.1.15,2013-05-23 19:27:00,
2013-05-23 14:38:00,84.7,70.7,29.99,West,267,0.0,0.0,63,0.00,,,0.00,949,Wunderground v.1.15,2013-05-23 19:38:00,
2013-05-23 14:44:00,84.7,71.6,29.99,SSW,197,0.0,5.0,65,0.00,,,0.00,1014,Wunderground v.1.15,2013-05-23 19:44:00,
2013-05-23 14:50:00,84.7,72.5,29.99,SSW,197,0.0,1.0,67,0.00,,,0.00,939,Wunderground v.1.15,2013-05-23 19:50:00,
2013-05-23 14:56:00,84.4,72.2,29.99,SSW,196,0.0,1.0,67,0.00,,,0.00,940,Wunderground v.1.15,2013-05-23 19:56:00,
2013-05-23 15:01:00,84.5,72.8,29.98,SSW,194,0.0,0.0,68,0.00,,,0.00,895,Wunderground v.1.15,2013-05-23 20:01:00,
2013-05-23 15:06:00,84.8,71.7,29.98,SSW,208,0.0,2.0,65,0.00,,,0.00,918,Wunderground v.1.15,2013-05-23 20:06:00,
2013-05-23 15:12:00,84.9,71.8,29.98,SW,226,1.0,1.0,65,0.00,,,0.00,229,Wunderground v.1.15,2013-05-23 20:12:00,
2013-05-23 15:17:00,84.8,72.2,29.98,SW,221,1.0,1.0,66,0.00,,,0.00,949,Wunderground v.1.15,2013-05-23 20:17:00,
2013-05-23 15:23:00,85.0,71.5,29.98,WSW,247,0.0,2.0,64,0.00,,,0.00,879,Wunderground v.1.15,2013-05-23 20:23:00,
2013-05-23 15:28:00,85.5,71.9,29.98,ESE,115,1.0,6.0,64,0.00,,,0.00,858,Wunderground v.1.15,2013-05-23 20:28:00,
2013-05-23 15:33:00,85.6,72.0,29.98,SW,230,1.0,2.0,64,0.00,,,0.00,826,Wunderground v.1.15,2013-05-23 20:33:00,
2013-05-23 15:38:00,85.7,71.7,29.97,WSW,238,0.0,2.0,63,0.00,,,0.00,563,Wunderground v.1.15,2013-05-23 20:38:00,
2013-05-23 15:44:00,85.8,72.2,29.97,WSW,250,0.0,0.0,64,0.00,,,0.00,617,Wunderground v.1.15,2013-05-23 20:44:00,
2013-05-23 15:49:00,86.1,72.5,29.97,WSW,248,0.0,2.0,64,0.00,,,0.00,663,Wunderground v.1.15,2013-05-23 20:49:00,
2013-05-23 15:54:00,86.1,71.6,29.97,West,263,0.0,0.0,62,0.00,,,0.00,758,Wunderground v.1.15,2013-05-23 20:54:00,
2013-05-23 15:59:00,86.4,71.8,29.97,West,271,0.0,2.0,62,0.00,,,0.00,455,Wunderground v.1.15,2013-05-23 20:59:00,
2013-05-23 16:05:00,86.4,71.8,29.97,West,270,0.0,0.0,62,0.00,,,0.00,705,Wunderground v.1.15,2013-05-23 21:05:00,
2013-05-23 16:10:00,86.4,71.4,29.97,West,260,0.0,0.0,61,0.00,,,0.00,737,Wunderground v.1.15,2013-05-23 21:10:00,
2013-05-23 16:15:00,86.5,71.0,29.97,West,269,0.0,0.0,60,0.00,,,0.00,703,Wunderground v.1.15,2013-05-23 21:15:00,
2013-05-23 16:20:00,86.6,70.6,29.96,West,260,1.0,1.0,59,0.00,,,0.00,668,Wunderground v.1.15,2013-05-23 21:20:00,
2013-05-23 16:25:00,86.3,70.3,29.96,West,281,1.0,2.0,59,0.00,,,0.00,649,Wunderground v.1.15,2013-05-23 21:25:00,
2013-05-23 16:31:00,86.3,70.8,29.96,WNW,287,1.0,1.0,60,0.00,,,0.00,636,Wunderground v.1.15,2013-05-23 21:31:00,
2013-05-23 16:37:00,86.4,70.9,29.96,WSW,256,1.0,5.0,60,0.00,,,0.00,608,Wunderground v.1.15,2013-05-23 21:37:00,
2013-05-23 16:42:00,86.6,71.1,29.96,West,271,1.0,1.0,60,0.00,,,0.00,598,Wunderground v.1.15,2013-05-23 21:42:00,
2013-05-23 16:47:00,86.5,70.5,29.96,WNW,298,0.0,1.0,59,0.00,,,0.00,578,Wunderground v.1.15,2013-05-23 21:47:00,
2013-05-23 16:52:00,86.5,70.5,29.96,WNW,298,0.0,1.0,59,0.00,,,0.00,561,Wunderground v.1.15,2013-05-23 21:52:00,
2013-05-23 16:58:00,86.3,70.3,29.96,WNW,294,1.0,4.0,59,0.00,,,0.00,552,Wunderground v.1.15,2013-05-23 21:58:00,
2013-05-23 17:03:00,86.5,70.5,29.96,WNW,294,1.0,2.0,59,0.00,,,0.00,526,Wunderground v.1.15,2013-05-23 22:03:00,
2013-05-23 17:09:00,86.7,70.7,29.95,WSW,258,1.0,2.0,59,0.00,,,0.00,499,Wunderground v.1.15,2013-05-23 22:09:00,
2013-05-23 17:14:00,86.6,70.1,29.95,SW,230,1.0,1.0,58,0.00,,,0.00,483,Wunderground v.1.15,2013-05-23 22:14:00,
2013-05-23 17:20:00,86.7,70.7,29.95,SW,236,1.0,1.0,59,0.00,,,0.00,466,Wunderground v.1.15,2013-05-23 22:20:00,
2013-05-23 17:25:00,86.5,69.5,29.94,West,268,0.0,1.0,57,0.00,,,0.00,459,Wunderground v.1.15,2013-05-23 22:25:00,
2013-05-23 17:31:00,86.4,70.4,29.94,WNW,302,0.0,1.0,59,0.00,,,0.00,432,Wunderground v.1.15,2013-05-23 22:31:00,
2013-05-23 17:37:00,86.4,70.4,29.94,WNW,302,0.0,1.0,59,0.00,,,0.00,411,Wunderground v.1.15,2013-05-23 22:37:00,
2013-05-23 17:43:00,86.5,71.0,29.93,WNW,302,0.0,2.0,60,0.00,,,0.00,380,Wunderground v.1.15,2013-05-23 22:43:00,
2013-05-23 17:48:00,86.5,70.5,29.93,WNW,302,0.0,2.0,59,0.00,,,0.00,366,Wunderground v.1.15,2013-05-23 22:48:00,
2013-05-23 17:53:00,86.7,70.7,29.93,WNW,301,0.0,0.0,59,0.00,,,0.00,364,Wunderground v.1.15,2013-05-23 22:53:00,
2013-05-23 17:59:00,86.6,71.5,29.94,WNW,301,0.0,0.0,61,0.00,,,0.00,202,Wunderground v.1.15,2013-05-23 22:59:00,
2013-05-23 18:04:00,86.6,71.1,29.94,WNW,301,0.0,0.0,60,0.00,,,0.00,155,Wunderground v.1.15,2013-05-23 23:04:00,
2013-05-23 18:09:00,86.3,73.6,29.94,WNW,301,0.0,0.0,66,0.00,,,0.00,127,Wunderground v.1.15,2013-05-23 23:09:00,
2013-05-23 18:14:00,85.8,72.2,29.95,WNW,301,0.0,0.0,64,0.00,,,0.00,130,Wunderground v.1.15,2013-05-23 23:14:00,
2013-05-23 18:20:00,85.2,72.6,29.95,WNW,298,0.0,0.0,66,0.00,,,0.00,121,Wunderground v.1.15,2013-05-23 23:20:00,
2013-05-23 18:25:00,84.7,73.4,29.95,WNW,301,0.0,0.0,69,0.00,,,0.00,107,Wunderground v.1.15,2013-05-23 23:25:00,
2013-05-23 18:30:00,84.0,74.4,29.95,WNW,301,0.0,0.0,73,0.00,,,0.00,105,Wunderground v.1.15,2013-05-23 23:30:00,
2013-05-23 18:35:00,83.6,74.0,29.96,WNW,301,0.0,0.0,73,0.00,,,0.00,100,Wunderground v.1.15,2013-05-23 23:35:00,
2013-05-23 18:41:00,83.4,73.8,29.95,WNW,301,0.0,0.0,73,0.00,,,0.00,93,Wunderground v.1.15,2013-05-23 23:41:00,
2013-05-23 18:46:00,83.2,73.6,29.95,WNW,301,0.0,0.0,73,0.00,,,0.00,81,Wunderground v.1.15,2013-05-23 23:46:00,
2013-05-23 18:51:00,83.1,74.4,29.95,WNW,301,0.0,0.0,75,0.00,,,0.00,74,Wunderground v.1.15,2013-05-23 23:51:00,
2013-05-23 18:56:00,83.0,74.3,29.95,WNW,301,0.0,0.0,75,0.00,,,0.00,69,Wunderground v.1.15,2013-05-23 23:56:00,
2013-05-23 19:02:00,82.8,74.5,29.95,WNW,301,0.0,0.0,76,0.00,,,0.00,63,Wunderground v.1.15,2013-05-24 00:02:00,
2013-05-23 19:07:00,82.5,74.6,29.96,WNW,301,0.0,0.0,77,0.00,,,0.00,51,Wunderground v.1.15,2013-05-24 00:07:00,
2013-05-23 19:12:00,82.3,74.4,29.96,WNW,301,0.0,0.0,77,0.00,,,0.00,40,Wunderground v.1.15,2013-05-24 00:12:00,
2013-05-23 19:18:00,82.1,74.2,29.96,WNW,301,0.0,0.0,77,0.00,,,0.00,33,Wunderground v.1.15,2013-05-24 00:18:00,
2013-05-23 19:24:00,81.7,74.5,29.96,WNW,301,0.0,0.0,79,0.00,,,0.00,28,Wunderground v.1.15,2013-05-24 00:24:00,
2013-05-23 19:29:00,81.2,74.4,29.96,WNW,301,0.0,0.0,80,0.00,,,0.00,26,Wunderground v.1.15,2013-05-24 00:29:00,
2013-05-23 19:34:00,80.9,74.5,29.96,WNW,301,0.0,0.0,81,0.00,,,0.00,28,Wunderground v.1.15,2013-05-24 00:34:00,
2013-05-23 19:39:00,80.7,74.3,29.95,WNW,301,0.0,0.0,81,0.00,,,0.00,26,Wunderground v.1.15,2013-05-24 00:39:00,
2013-05-23 19:45:00,80.4,74.0,29.96,WNW,301,0.0,0.0,81,0.00,,,0.00,18,Wunderground v.1.15,2013-05-24 00:45:00,
2013-05-23 19:51:00,80.1,74.1,29.96,WNW,301,0.0,0.0,82,0.00,,,0.00,12,Wunderground v.1.15,2013-05-24 00:51:00,
2013-05-23 19:57:00,79.8,73.8,29.97,WNW,301,0.0,0.0,82,0.00,,,0.00,11,Wunderground v.1.15,2013-05-24 00:57:00,
2013-05-23 20:02:00,79.6,73.6,29.97,WNW,301,0.0,0.0,82,0.00,,,0.00,0,Wunderground v.1.15,2013-05-24 01:02:00,
2013-05-23 20:08:00,79.3,73.7,29.97,WNW,301,0.0,0.0,83,0.00,,,0.00,0,Wunderground v.1.15,2013-05-24 01:08:00,
2013-05-23 20:13:00,78.9,72.9,29.97,WNW,301,0.0,0.0,82,0.00,,,0.00,0,Wunderground v.1.15,2013-05-24 01:13:00,
2013-05-23 20:18:00,78.7,72.7,29.98,WNW,301,0.0,0.0,82,0.00,,,0.00,0,Wunderground v.1.15,2013-05-24 01:18:00,
2013-05-23 20:23:00,78.3,72.7,29.97,WNW,301,0.0,0.0,83,0.00,,,0.00,0,Wunderground v.1.15,2013-05-24 01:23:00,
2013-05-23 20:29:00,78.0,73.5,29.97,WNW,301,0.0,0.0,86,0.00,,,0.00,0,Wunderground v.1.15,2013-05-24 01:29:00,
2013-05-23 20:34:00,77.7,73.5,29.97,WNW,301,0.0,0.0,87,0.00,,,0.00,0,Wunderground v.1.15,2013-05-24 01:34:00,
2013-05-23 20:39:00,77.5,73.7,29.97,WNW,301,0.0,0.0,88,0.00,,,0.00,0,Wunderground v.1.15,2013-05-24 01:39:00,
2013-05-23 20:44:00,77.2,73.4,29.97,WNW,301,0.0,0.0,88,0.00,,,0.00,0,Wunderground v.1.15,2013-05-24 01:44:00,
2013-05-23 20:49:00,77.0,73.2,29.97,WNW,301,0.0,0.0,88,0.00,,,0.00,0,Wunderground v.1.15,2013-05-24 01:49:00,
2013-05-23 20:55:00,76.8,73.0,29.97,WNW,301,0.0,0.0,88,0.00,,,0.00,0,Wunderground v.1.15,2013-05-24 01:55:00,
2013-05-23 21:00:00,76.6,73.1,29.98,WNW,301,0.0,0.0,89,0.00,,,0.00,0,Wunderground v.1.15,2013-05-24 02:00:00,
2013-05-23 21:05:00,76.5,73.0,29.98,WNW,301,0.0,0.0,89,0.00,,,0.00,0,Wunderground v.1.15,2013-05-24 02:05:00,
2013-05-23 21:10:00,76.4,72.9,29.98,WNW,301,0.0,0.0,89,0.00,,,0.00,0,Wunderground v.1.15,2013-05-24 02:10:00,
2013-05-23 21:16:00,76.2,72.4,29.98,WNW,301,0.0,0.0,88,0.00,,,0.00,0,Wunderground v.1.15,2013-05-24 02:16:00,
2013-05-23 21:21:00,76.3,72.5,29.98,WNW,301,0.0,0.0,88,0.00,,,0.00,0,Wunderground v.1.15,2013-05-24 02:21:00,
2013-05-23 21:26:00,76.4,72.9,29.99,WNW,301,0.0,0.0,89,0.00,,,0.00,0,Wunderground v.1.15,2013-05-24 02:26:00,
2013-05-23 21:31:00,76.4,72.9,29.99,WNW,301,0.0,0.0,89,0.00,,,0.00,0,Wunderground v.1.15,2013-05-24 02:31:00,
2013-05-23 21:37:00,76.3,72.8,29.99,WNW,301,0.0,0.0,89,0.00,,,0.00,0,Wunderground v.1.15,2013-05-24 02:37:00,
2013-05-23 21:42:00,76.1,72.6,30.00,WNW,301,0.0,0.0,89,0.00,,,0.00,0,Wunderground v.1.15,2013-05-24 02:42:00,
2013-05-23 21:47:00,76.1,73.0,30.00,WNW,301,0.0,0.0,90,0.00,,,0.00,0,Wunderground v.1.15,2013-05-24 02:47:00,
2013-05-23 21:52:00,76.0,72.9,30.00,WNW,301,0.0,0.0,90,0.00,,,0.00,0,Wunderground v.1.15,2013-05-24 02:52:00,
2013-05-23 21:58:00,75.9,72.8,30.00,WNW,301,0.0,0.0,90,0.00,,,0.00,0,Wunderground v.1.15,2013-05-24 02:58:00,
2013-05-23 22:03:00,75.8,72.7,30.01,West,267,0.0,2.0,90,0.00,,,0.00,0,Wunderground v.1.15,2013-05-24 03:03:00,
2013-05-23 22:08:00,76.1,73.0,30.01,SSW,197,1.0,2.0,90,0.00,,,0.00,0,Wunderground v.1.15,2013-05-24 03:08:00,
2013-05-23 22:13:00,76.3,72.5,30.01,SSW,207,1.0,4.0,88,0.00,,,0.00,0,Wunderground v.1.15,2013-05-24 03:13:00,
2013-05-23 22:19:00,76.7,72.9,30.00,WSW,238,1.0,4.0,88,0.00,,,0.00,0,Wunderground v.1.15,2013-05-24 03:19:00,
2013-05-23 22:24:00,76.8,73.0,30.00,SW,219,1.0,1.0,88,0.00,,,0.00,0,Wunderground v.1.15,2013-05-24 03:24:00,
2013-05-23 22:29:00,76.7,72.9,30.01,SW,230,1.0,6.0,88,0.00,,,0.00,0,Wunderground v.1.15,2013-05-24 03:29:00,
2013-05-23 22:34:00,76.7,72.9,30.01,WSW,237,1.0,1.0,88,0.00,,,0.00,0,Wunderground v.1.15,2013-05-24 03:34:00,
2013-05-23 22:40:00,76.5,73.0,30.02,WSW,241,0.0,3.0,89,0.00,,,0.00,0,Wunderground v.1.15,2013-05-24 03:40:00,
2013-05-23 22:45:00,76.3,72.8,30.02,West,265,0.0,3.0,89,0.00,,,0.00,0,Wunderground v.1.15,2013-05-24 03:45:00,
2013-05-23 22:50:00,76.1,72.6,30.02,WSW,258,1.0,1.0,89,0.00,,,0.00,0,Wunderground v.1.15,2013-05-24 03:50:00,
2013-05-23 22:56:00,76.0,72.9,30.02,West,267,0.0,1.0,90,0.00,,,0.00,0,Wunderground v.1.15,2013-05-24 03:56:00,
2013-05-23 23:01:00,75.8,72.7,30.02,West,266,0.0,6.0,90,0.00,,,0.00,0,Wunderground v.1.15,2013-05-24 04:01:00,
2013-05-23 23:02:00,75.8,72.7,30.02,West,266,0.0,6.0,90,0.00,,,0.00,0,Wunderground v.1.15,2013-05-24 04:02:00,
2013-05-23 23:04:00,75.7,72.6,30.02,West,281,0.0,6.0,90,0.00,,,0.00,0,Wunderground v.1.15,2013-05-24 04:04:00,
2013-05-23 23:05:00,75.6,72.5,30.02,SW,233,1.0,6.0,90,0.00,,,0.00,0,Wunderground v.1.15,2013-05-24 04:05:00,
2013-05-23 23:08:00,75.4,71.9,30.01,WNW,294,1.0,6.0,89,0.00,,,0.00,0,Wunderground v.1.15,2013-05-24 04:08:00,
2013-05-23 23:35:00,74.4,69.9,30.00,West,278,0.0,0.0,86,0.00,,,0.00,0,Wunderground v.1.15,2013-05-24 04:35:00,
2013-05-23 23:40:00,74.2,69.7,30.01,West,279,0.0,1.0,86,0.00,,,0.00,0,Wunderground v.1.15,2013-05-24 04:40:00,
2013-05-23 23:46:00,74.0,69.9,30.00,West,278,0.0,1.0,87,0.00,,,0.00,0,Wunderground v.1.15,2013-05-24 04:46:00,
2013-05-23 23:51:00,73.8,69.7,30.00,West,279,0.0,0.0,87,0.00,,,0.00,0,Wunderground v.1.15,2013-05-24 04:51:00,
2013-05-23 23:57:00,73.7,69.9,30.00,West,279,0.0,0.0,88,0.00,,,0.00,0,Wunderground v.1.15,2013-05-24 04:57:00,